Theta_e
313 314 313 313 312 311 310 309 308 307 307 306 306 306 307 307 307 307 307 307 308 309 309 310 310 310 310 310 310 309 309 308 308 307 307 306 305 304 304 304 303 303 302 302 301 300 300 301 302 302 303 304 304 304 304 304 305 305 305 306 306 306 306 306 305 305 304 303 303 303 302 302 302 302 302 303 302 302 302 302 302 303 303 303 303 304
311 312 312 311 311 310 309 309 308 307 306 306 306 306 306 306 306 306 307 307 308 308 309 309 309 309 309 309 308 308 308 307 307 306 305 305 304 303 303 303 302 302 302 301 300 300 300 301 302 302 303 303 303 303 303 303 304 304 304 304 304 304 304 304 303 303 302 302 302 301 301 301 301 301 301 301 301 301 301 301 301 301 301 302 302 302
310 310 310 310 309 309 308 307 307 306 306 306 306 306 306 305 305 306 306 306 307 308 308 308 308 308 308 307 307 306 306 306 305 305 304 304 303 303 302 302 301 301 301 300 299 300 300 301 301 301 302 302 302 302 302 302 303 303 303 303 303 302 302 302 301 301 301 301 300 300 300 300 300 300 300 300 300 300 300 300 300 300 301 301 301 301
309 308 308 308 308 308 307 307 306 305 305 305 305 305 305 304 304 305 305 306 307 307 307 307 307 307 306 306 305 305 305 305 304 304 303 303 302 302 301 301 300 300 299 299 299 299 300 300 300 300 301 301 301 301 301 301 302 301 301 301 301 301 301 300 300 300 300 300 299 299 299 299 299 299 299 299 299 299 299 299 299 300 300 300 300 300
307 307 307 307 307 306 306 305 305 304 304 304 304 303 303 303 303 304 305 305 306 306 306 306 306 305 305 304 304 304 303 303 303 303 302 302 301 301 300 300 300 299 299 299 299 299 299 299 299 300 300 301 301 300 301 301 301 301 301 300 300 300 300 300 299 299 299 299 299 299 299 299 299 299 298 298 298 298 298 298 298 298 299 299 299 299
307 307 307 306 306 305 304 304 304 303 303 302 302 302 302 302 302 303 304 304 305 305 305 305 305 305 304 304 303 303 302 302 302 302 301 301 300 300 300 299 299 299 298 299 299 299 298 298 299 299 299 300 300 300 300 300 300 300 299 299 299 299 298 298 298 298 298 298 298 298 298 298 298 298 298 298 298 297 297 297 297 297 297 297 298 298
307 306 305 305 305 305 304 303 303 302 302 302 301 301 301 301 301 302 303 303 304 304 304 304 304 304 303 303 302 302 301 301 301 301 301 300 300 299 299 299 298 298 298 298 298 298 298 298 298 298 298 298 299 299 299 298 298 298 298 298 298 297 297 297 297 297 297 297 297 297 297 297 297 297 297 296 296 296 296 296 296 296 296 296 296 296
307 305 304 304 304 303 302 302 301 301 301 301 301 300 300 300 300 301 301 302 303 303 303 303 304 303 303 302 302 301 301 301 300 300 300 299 299 299 299 298 298 298 298 298 298 297 297 297 297 297 297 297 297 297 297 297 296 296 296 296 296 296 295 296 295 295 295 295 295 295 295 294 294 294 294 293 293 293 293 294 294 294 294 294 295 295
307 304 303 303 303 302 300 300 300 300 300 300 300 299 299 298 299 299 300 301 301 302 302 303 303 303 302 302 301 301 301 300 300 299 299 299 299 298 298 298 298 298 298 297 297 297 296 296 296 296 295 295 295 295 295 295 294 294 294 294 294 294 293 293 293 292 292 292 291 291 290 290 290 290 289 289 290 290 290 291 291 292 293 293 294 294
306 304 302 302 302 301 300 299 298 298 299 299 299 299 298 297 297 298 298 299 300 301 301 302 302 302 301 301 301 300 300 300 299 299 299 298 298 298 297 297 297 297 297 297 296 296 295 295 295 294 294 294 293 293 293 293 292 292 292 292 291 291 291 290 289 289 288 288 287 287 287 287 287 287 287 287 287 288 288 288 289 290 291 292 293 293
304 303 302 301 300 300 300 299 298 298 298 298 298 298 298 297 297 297 297 297 298 299 300 300 301 301 301 300 300 299 299 299 299 298 298 298 298 297 297 297 297 297 297 296 295 295 294 294 293 293 292 292 292 292 292 291 291 291 290 290 289 289 288 288 287 287 286 286 286 286 286 286 286 286 287 287 287 288 288 288 288 289 290 291 292 293
303 302 301 300 299 298 298 298 297 297 297 297 297 297 297 297 297 297 297 297 297 297 298 298 299 299 300 299 299 299 299 298 298 298 298 297 297 297 297 297 297 296 296 295 294 294 293 293 292 292 291 291 291 291 291 291 290 290 289 289 288 288 287 287 286 286 286 286 286 286 286 286 287 287 288 288 289 289 289 289 289 289 289 291 291 292
302 301 300 299 298 297 297 296 296 295 296 296 297 297 297 297 297 297 298 297 297 296 297 297 298 298 298 298 298 298 298 298 298 297 297 297 297 297 297 296 296 295 295 294 293 293 293 292 291 291 291 291 291 291 291 290 290 289 289 288 288 288 287 287 286 286 286 287 287 287 287 287 287 288 288 289 289 289 290 290 289 289 289 290 291 292
301 300 299 298 297 297 296 295 295 295 295 296 297 297 298 297 297 297 297 297 296 296 296 296 296 297 297 297 297 297 297 297 297 297 297 297 296 296 296 295 295 294 294 293 293 292 292 291 290 290 290 291 291 291 290 290 289 289 288 288 288 287 287 286 285 285 287 287 288 288 287 287 287 288 288 289 289 290 290 290 290 289 289 290 290 291
301 300 299 298 298 297 296 296 296 296 296 296 297 298 298 297 297 297 297 297 296 295 295 295 295 295 296 296 296 296 296 296 296 296 296 295 295 295 295 294 293 293 293 292 292 292 291 290 290 289 289 290 290 290 290 289 289 288 288 288 287 287 286 285 285 286 287 288 288 288 288 287 287 288 288 289 289 290 290 290 290 289 289 289 290 291
302 301 300 300 299 298 297 296 296 296 297 297 297 298 298 297 297 297 297 297 295 294 294 294 294 294 294 295 295 296 296 295 295 295 295 294 294 294 293 293 292 292 292 291 291 291 291 290 289 289 289 289 290 290 290 289 289 288 288 288 287 287 285 285 286 287 288 288 288 288 288 287 287 288 289 289 289 290 290 290 290 290 289 289 290 290
302 302 301 301 300 299 299 298 297 297 297 297 297 298 298 297 297 297 297 296 295 294 294 294 294 294 294 294 294 295 295 295 295 294 294 293 293 293 293 292 291 291 291 290 290 290 290 289 289 289 289 289 289 289 289 289 288 288 288 287 287 286 285 286 287 288 288 288 288 288 288 287 288 288 288 289 289 289 290 289 289 289 289 289 289 290
303 302 302 302 301 301 300 298 298 298 298 298 297 298 297 297 297 297 297 296 295 295 295 295 295 295 295 294 293 293 294 294 294 294 294 293 292 293 293 292 291 290 290 290 290 289 289 289 289 289 289 289 288 288 288 288 288 288 287 287 286 285 285 287 288 288 288 288 288 288 288 288 288 288 288 289 289 289 289 289 289 289 289 289 289 289
303 302 302 302 302 302 301 299 299 298 298 298 298 297 297 297 297 297 297 296 296 295 296 296 296 296 296 296 295 294 294 294 294 294 294 293 292 292 293 293 292 290 290 290 289 289 289 289 289 289 289 289 288 288 288 287 287 287 287 286 285 285 286 287 288 288 288 288 288 288 288 288 288 288 288 288 289 289 289 289 289 289 289 290 290 290
302 302 302 303 303 302 301 300 299 299 299 298 298 297 297 297 296 296 296 296 296 296 296 296 296 297 297 297 295 294 294 294 293 293 293 293 292 291 292 293 292 290 290 289 289 289 289 289 289 289 289 289 288 287 287 287 286 286 286 285 286 286 287 288 289 289 288 288 288 288 288 288 288 288 288 288 288 289 289 289 289 289 289 289 289 289
302 302 302 302 303 303 302 301 300 300 299 298 298 297 296 296 296 296 296 296 296 296 296 297 297 298 297 296 294 294 295 294 293 293 293 293 292 291 291 292 291 290 289 289 289 289 289 289 289 289 289 288 287 287 286 286 286 285 285 286 286 287 288 288 289 289 288 288 288 288 288 288 288 287 287 288 288 288 288 289 289 289 289 289 289 289
302 302 302 302 302 303 302 301 300 300 299 299 298 297 296 296 296 296 296 295 296 296 297 298 298 297 295 294 294 294 294 294 293 293 293 293 291 290 291 291 290 290 289 289 289 289 289 289 289 289 288 287 287 286 285 285 285 285 286 286 287 288 288 288 289 289 288 288 288 288 287 287 287 287 287 287 287 288 288 288 288 288 288 289 289 289
302 302 302 302 302 302 302 301 300 300 299 299 299 298 297 297 296 296 296 296 296 297 297 295 294 294 293 293 293 294 293 293 293 293 293 293 292 290 290 290 290 289 289 289 289 289 289 289 289 288 287 286 286 285 285 285 285 286 286 287 287 288 288 288 289 289 289 288 288 288 287 288 288 288 288 287 287 288 288 288 288 288 288 288 288 288
301 301 301 301 301 301 302 301 300 299 299 299 299 298 298 297 297 296 296 296 296 296 295 294 293 293 292 292 292 293 293 293 293 293 293 293 292 290 289 290 290 289 289 288 288 288 288 288 288 287 286 286 285 285 284 284 285 286 286 287 287 288 288 288 289 289 289 288 288 288 288 288 288 288 288 287 287 287 287 288 288 288 288 288 288 288
300 300 300 300 300 300 301 300 300 299 299 299 298 298 297 297 296 296 296 295 295 295 294 293 292 291 290 290 290 291 292 292 292 292 293 293 291 289 289 289 289 289 288 288 288 288 287 287 286 286 285 285 284 284 284 284 285 285 286 286 287 287 288 288 289 289 289 288 288 288 288 288 288 288 288 288 288 287 287 287 287 287 287 287 287 288
298 299 299 299 299 299 300 300 299 299 299 298 298 297 297 296 296 295 295 295 294 294 293 293 292 291 290 289 289 289 290 291 292 292 292 292 289 287 287 288 288 288 287 287 287 287 286 286 285 285 285 284 284 284 284 283 284 284 285 285 286 287 288 288 289 289 289 288 288 288 288 288 288 288 288 288 288 288 288 288 287 287 287 287 287 287
297 298 298 299 299 299 299 299 299 298 298 298 298 297 297 296 295 295 294 293 293 293 293 293 294 292 291 290 289 289 289 290 291 291 291 290 289 287 286 287 287 287 286 286 286 285 285 285 284 284 284 284 284 284 283 283 283 283 284 284 285 286 288 288 289 289 289 288 288 288 288 288 288 288 288 288 288 288 288 288 288 287 287 287 287 287
296 297 297 298 298 298 298 298 298 298 298 297 297 297 296 296 295 294 293 293 293 293 294 294 294 293 291 291 290 289 288 289 290 291 291 290 288 287 286 286 286 286 286 285 285 285 284 284 284 284 284 284 284 284 283 283 283 283 283 283 285 286 288 288 289 289 289 288 288 287 287 287 287 287 287 288 288 288 288 288 287 287 287 287 287 287
295 295 296 296 296 296 297 297 297 297 297 297 297 296 296 295 295 294 294 293 293 293 294 295 295 294 292 291 289 288 288 288 289 290 290 289 287 286 286 285 285 285 285 285 284 284 284 284 284 284 284 284 284 284 284 284 284 283 283 284 285 287 288 289 289 288 288 288 287 287 287 286 286 287 287 287 287 287 288 287 287 287 287 287 287 287
294 294 294 295 295 295 296 296 296 296 295 296 296 295 295 295 295 295 294 294 293 294 294 295 295 294 291 290 288 287 287 287 288 289 290 288 287 286 285 285 285 285 285 285 285 284 284 284 284 284 284 284 284 284 284 284 284 284 284 286 287 288 288 289 288 288 287 287 287 287 286 286 285 285 286 286 287 287 287 287 287 287 287 287 287 287
293 293 293 293 294 294 295 295 295 295 294 294 294 294 294 294 294 294 294 294 294 294 294 295 294 293 291 289 289 288 288 287 288 288 289 287 286 285 285 284 284 285 285 285 286 286 285 285 285 284 284 284 284 284 284 284 284 284 286 287 288 288 288 288 288 287 287 287 287 286 286 285 285 284 284 285 286 286 287 287 287 287 287 287 287 287
292 292 292 293 293 293 294 294 294 294 293 293 293 293 293 293 293 293 293 293 294 294 294 294 293 292 291 290 290 290 288 287 287 288 288 287 286 285 285 284 284 284 285 285 286 287 287 286 285 284 284 284 284 284 284 284 284 285 286 287 288 288 288 288 287 287 287 287 286 286 286 286 285 284 284 284 284 285 286 286 287 287 287 287 287 288
292 292 292 292 292 292 293 293 293 293 293 292 292 292 292 292 292 292 292 293 293 293 294 293 292 291 290 290 290 289 287 287 288 288 288 287 286 285 285 284 284 284 285 285 286 287 287 287 286 284 284 284 284 284 283 283 284 285 287 287 287 287 287 287 287 287 286 286 286 286 286 286 285 285 285 284 284 284 284 285 286 287 287 287 287 287
291 291 292 292 292 292 292 292 292 292 292 291 291 291 291 291 291 291 292 292 292 293 293 293 292 291 290 289 288 287 286 287 287 288 287 287 286 285 284 284 284 284 284 285 285 286 286 286 286 285 284 284 284 283 283 283 284 285 286 287 287 286 286 286 286 286 286 285 285 285 285 285 285 285 285 285 284 284 283 284 285 286 286 287 287 287
290 291 291 291 291 291 291 291 291 291 291 290 290 290 290 291 291 291 291 291 292 292 292 292 291 291 290 289 288 286 286 286 286 287 287 286 286 285 284 284 284 284 284 284 284 284 285 285 285 285 285 284 284 284 284 283 284 284 285 286 286 286 286 286 285 285 285 285 285 285 285 285 285 285 285 285 285 284 283 283 283 284 286 286 287 287
290 290 290 290 290 291 290 290 290 290 289 289 289 289 290 290 290 290 290 290 291 291 291 291 290 290 289 289 288 287 286 286 286 286 286 286 286 285 284 284 284 284 284 284 284 284 284 285 285 285 285 285 285 284 284 284 284 284 285 285 286 285 285 285 285 285 285 284 284 284 284 284 284 285 285 285 285 284 283 283 282 283 284 286 286 287
289 290 290 290 290 290 290 290 289 289 289 288 288 289 289 289 289 289 289 289 290 290 290 290 290 289 289 288 288 287 287 287 286 285 285 285 285 285 284 284 284 284 284 284 284 284 284 284 285 285 285 285 285 285 285 284 284 284 284 285 285 286 285 285 285 285 285 284 284 284 284 284 284 284 284 284 284 284 283 283 282 282 283 284 285 286
289 289 290 289 289 289 289 289 289 288 288 288 288 288 288 288 288 289 289 289 289 289 289 289 288 288 288 287 287 287 287 286 285 284 284 284 284 284 284 284 284 284 284 284 284 284 284 284 284 284 285 285 286 285 285 284 284 284 284 284 285 285 285 285 285 285 285 285 284 284 284 284 283 283 283 283 283 283 283 282 282 282 282 283 284 285
289 289 289 289 289 289 289 289 288 288 288 287 287 287 287 287 288 288 288 288 288 288 288 287 287 287 286 286 286 285 285 285 284 283 283 284 284 283 283 283 283 283 283 284 284 284 284 284 284 284 284 285 285 285 285 284 284 283 283 284 284 284 285 285 285 284 284 284 284 283 283 283 283 283 283 282 282 282 282 282 282 283 283 283 283 284
289 289 289 289 289 289 289 289 289 288 287 287 287 287 287 287 287 287 287 287 287 287 287 286 286 285 285 284 284 284 283 283 283 282 283 283 283 283 283 283 283 283 283 283 284 284 284 284 285 285 285 285 285 285 285 284 284 284 283 283 283 283 283 283 283 283 283 283 283 282 282 282 282 282 282 282 282 282 282 282 282 283 283 283 284 284
289 289 289 289 289 289 289 289 288 288 287 287 287 287 287 287 287 286 286 286 286 286 286 285 285 284 284 283 283 283 282 282 282 282 282 283 283 283 283 283 283 283 283 283 283 283 284 284 285 285 285 285 285 285 285 284 284 284 284 283 283 283 283 283 283 283 282 282 282 282 282 282 281 281 281 281 281 281 282 282 282 283 283 283 284 284
289 289 289 289 289 289 288 288 287 287 287 287 287 286 286 286 286 286 286 286 286 285 285 285 284 284 283 283 282 282 282 282 282 282 282 282 282 282 282 282 282 282 282 282 283 283 283 284 284 285 285 285 285 285 284 284 284 283 283 283 283 283 283 283 283 283 283 282 282 282 282 281 281 281 281 281 281 282 282 282 282 283 283 283 283 284
289 289 289 288 288 288 287 287 287 287 287 287 286 286 286 286 286 286 286 285 285 285 285 285 284 284 283 282 282 282 281 281 281 282 282 282 282 282 282 282 282 282 282 282 282 282 283 283 284 284 284 284 284 284 284 284 284 283 283 283 283 283 284 283 283 283 283 283 282 282 282 281 281 281 281 282 282 282 282 282 282 283 283 283 283 283
289 289 288 288 287 287 287 287 286 286 286 286 286 286 286 286 286 286 285 285 285 285 285 284 284 283 283 282 282 281 281 281 281 281 281 281 281 281 281 281 281 281 281 281 281 282 282 283 283 283 284 284 284 284 284 284 284 284 284 283 283 283 283 283 283 283 283 283 282 282 281 281 281 281 282 282 282 282 282 282 282 282 283 283 283 283
288 288 287 287 287 286 286 286 286 286 286 286 285 285 285 286 286 285 285 285 284 284 284 284 284 283 283 282 282 281 281 281 281 281 281 281 281 281 281 281 281 281 281 281 281 282 282 282 282 283 283 283 283 283 284 284 284 284 284 284 283 283 283 283 283 283 283 282 282 282 281 281 281 281 282 282 282 282 282 282 282 282 283 283 283 283
288 287 286 286 286 286 285 285 285 285 285 285 285 285 285 285 285 285 285 284 284 284 284 284 284 284 283 283 282 282 281 281 281 281 281 281 281 281 281 281 281 281 281 281 281 282 282 282 282 282 282 283 283 283 283 283 284 284 284 284 284 283 283 283 283 283 283 282 282 282 282 281 281 281 282 282 282 282 282 282 282 282 282 283 283 283
287 286 286 285 285 285 285 285 285 285 285 285 284 284 284 285 284 284 284 284 284 284 283 283 283 284 284 284 283 282 282 281 281 281 281 281 281 281 281 281 281 281 281 281 281 282 282 282 282 283 283 283 282 282 283 283 283 283 284 284 283 283 283 283 283 282 282 282 282 282 282 281 281 281 281 281 281 282 282 282 282 282 282 282 283 283
286 285 285 285 285 284 284 284 284 284 284 284 284 284 284 284 284 284 284 284 283 283 283 283 283 283 284 284 283 283 282 282 281 281 281 281 281 281 281 281 281 281 281 281 281 281 281 282 282 283 283 283 283 283 283 283 283 283 283 283 283 283 283 283 283 282 282 282 282 282 282 282 281 281 281 281 281 282 282 282 282 282 283 283 283 283
286 285 285 284 284 284 284 284 284 284 284 284 283 283 283 283 284 284 283 283 283 283 283 283 283 283 283 284 284 283 283 282 282 281 281 281 281 281 281 281 280 280 280 280 280 280 280 281 281 282 282 282 283 283 283 283 283 283 283 283 283 283 283 283 283 282 282 282 282 282 282 281 281 281 281 281 282 282 282 283 283 283 283 283 283 283
285 285 284 284 284 284 283 283 283 284 283 283 283 283 283 283 283 283 283 283 283 282 283 283 283 283 283 283 283 283 283 283 282 282 281 281 281 281 280 280 280 280 280 279 279 280 280 280 280 281 281 281 282 282 283 283 283 283 283 283 283 283 283 283 283 282 282 282 282 281 281 281 281 280 281 281 281 282 282 282 283 283 283 283 283 283
285 284 284 284 284 283 283 283 283 283 283 283 283 282 282 282 282 282 282 282 282 282 282 282 282 283 283 283 283 283 283 283 283 283 282 281 281 280 280 280 280 279 280 280 280 280 280 280 281 281 281 281 281 281 282 282 283 283 283 283 283 283 283 283 282 282 282 282 281 281 281 281 280 280 280 280 281 281 281 282 282 283 283 283 283 283
Wind_Speed
13 14 14 14 13 12 12 13 13 13 15 16 17 18 18 20 21 22 21 20 20 20 20 21 21 21 21 21 20 20 19 17 16 14 13 12 11 10 9 8 8 7 6 5 5 5 6 6 7 7 7 7 8 8 7 7 7 7 7 7 8 9 9 10 9 9 8 8 7 7 7 8 8 9 9 9 8 8 7 7 7 7 7 7 7 6
14 14 15 15 14 13 13 13 13 14 16 17 18 18 18 19 21 22 21 20 20 21 21 21 21 21 21 20 19 19 18 17 15 14 13 12 11 10 9 8 7 6 5 5 5 7 8 9 10 10 11 12 12 12 12 12 12 12 11 11 11 11 11 11 11 10 9 9 8 8 8 8 9 9 9 8 8 7 7 7 7 7 7 7 7 6
14 14 14 15 14 13 13 14 14 15 16 17 18 18 18 19 21 21 21 20 21 21 21 21 21 20 20 19 18 17 16 16 15 13 12 11 10 9 8 8 7 6 5 5 7 9 10 11 12 12 13 13 13 13 13 13 14 13 13 13 13 12 12 12 11 11 10 10 9 9 9 9 9 9 9 8 8 7 7 7 8 8 8 7 7 6
13 14 14 14 14 14 14 14 15 16 16 17 17 17 17 19 21 21 21 21 21 22 22 22 21 20 19 18 17 16 15 15 14 13 12 11 10 9 8 7 6 5 5 6 8 10 11 12 12 13 13 13 13 13 13 13 13 13 13 13 12 12 11 11 11 10 10 10 10 9 9 9 9 9 9 9 9 8 8 8 8 8 8 8 7 6
11 13 14 14 13 13 13 14 15 16 17 17 17 17 17 19 21 22 22 22 22 22 22 22 21 20 19 18 16 15 14 14 13 12 11 10 9 8 7 7 6 5 6 8 10 10 11 12 12 13 13 13 13 13 13 13 13 13 12 12 11 11 10 10 10 10 10 10 10 9 9 9 9 9 10 9 9 9 8 8 8 9 9 9 8 7
10 11 13 13 13 14 14 14 15 17 17 18 17 17 18 20 21 22 22 22 22 22 23 23 22 21 19 18 17 15 14 13 12 11 10 9 8 7 7 6 6 7 8 10 11 11 11 12 12 13 13 13 13 13 13 13 13 12 11 11 11 10 10 10 10 10 10 10 10 10 10 10 11 11 11 11 11 10 10 9 9 9 9 9 9 8
9 10 12 13 14 15 15 15 16 18 19 18 18 18 19 20 21 21 21 22 22 22 22 23 22 21 20 19 17 16 14 13 12 11 10 9 8 7 7 7 7 8 10 11 11 11 11 11 12 12 12 13 13 13 12 12 12 11 11 11 10 10 10 10 10 10 10 10 11 11 12 12 12 12 13 13 12 12 11 10 10 9 9 8 8 8
9 11 13 14 15 15 16 16 17 18 19 20 19 19 19 19 20 21 21 22 22 22 22 22 21 21 20 19 18 17 15 13 12 11 10 9 8 8 8 8 9 10 11 12 12 12 11 11 11 11 11 12 12 11 11 11 11 11 11 11 11 10 10 10 11 11 11 11 12 12 13 13 13 13 14 14 13 13 12 11 10 9 8 7 7 7
12 12 14 15 15 14 15 16 17 18 19 19 19 19 19 18 18 19 20 20 21 21 21 21 20 20 19 18 17 16 14 13 11 10 10 10 9 9 10 10 11 12 13 13 12 11 11 11 11 11 10 10 10 10 10 10 11 11 11 11 11 11 11 11 11 11 11 11 12 12 12 12 12 12 12 12 12 12 12 11 10 9 7 6 6 6
13 13 14 14 15 15 14 15 16 17 18 18 18 18 18 18 18 18 18 18 20 20 21 20 20 19 18 17 16 15 14 12 11 10 10 10 10 10 11 12 12 13 13 13 12 11 11 10 10 10 9 9 8 9 9 10 10 10 10 10 10 10 10 10 10 10 10 10 10 10 10 10 9 9 9 9 9 10 10 10 9 9 7 6 5 5
12 13 13 13 13 14 14 15 16 17 18 17 17 17 17 18 18 17 16 16 18 19 19 19 19 19 18 17 15 15 14 12 12 11 11 11 10 10 11 12 13 13 14 13 12 11 10 10 9 9 8 8 8 9 9 9 9 9 9 8 8 8 8 8 8 8 8 7 7 7 7 7 6 6 6 6 6 6 7 7 8 9 8 7 6 5
11 12 12 12 12 12 12 14 16 17 17 16 14 13 14 17 19 18 17 16 17 18 18 18 18 18 18 17 16 15 15 14 14 13 13 13 13 13 13 14 14 14 14 13 12 11 11 10 9 8 8 8 9 9 10 9 9 8 8 7 7 7 7 7 7 6 6 6 5 5 5 5 5 5 5 4 4 4 5 6 7 8 8 8 6 5
12 12 12 12 12 12 12 12 14 15 16 16 14 13 14 16 18 18 16 16 17 17 18 18 17 17 17 17 17 17 16 16 15 15 15 15 16 16 16 16 16 15 14 13 13 12 12 11 10 9 9 9 10 10 10 10 9 9 8 7 7 7 7 7 6 6 5 5 5 5 5 5 5 5 5 4 4 4 4 4 5 7 8 8 6 5
11 11 11 10 11 12 13 13 14 14 16 17 16 16 15 16 18 17 15 14 15 16 17 16 16 16 16 17 17 18 17 17 16 16 16 16 17 17 17 16 15 14 14 13 12 12 13 12 11 10 10 10 10 10 10 10 10 9 9 8 8 8 7 7 6 5 5 5 5 5 5 5 5 5 5 4 4 4 4 4 4 5 7 7 6 6
11 11 10 9 10 12 13 14 15 16 17 17 17 16 15 16 17 17 14 13 13 14 14 14 14 15 15 17 18 19 18 17 16 15 15 15 16 17 16 14 14 14 13 12 11 11 12 12 11 11 11 10 10 10 10 10 10 10 9 9 9 8 7 6 6 6 6 6 6 6 6 5 5 5 4 4 4 4 4 4 4 5 6 6 6 6
12 12 11 10 11 12 14 15 15 15 16 16 16 16 15 16 17 17 15 14 14 14 13 12 10 10 12 16 19 20 19 16 15 14 13 14 16 18 17 14 13 13 13 12 11 11 12 12 11 11 11 11 11 11 11 10 10 10 10 9 9 8 7 6 6 6 7 7 7 6 6 5 5 5 5 4 4 4 4 4 4 5 5 6 6 6
13 13 12 11 11 12 14 15 15 15 15 16 17 17 17 17 18 18 16 16 15 15 13 12 8 6 7 12 17 21 21 17 14 13 13 13 16 19 19 15 13 13 14 13 11 11 12 13 12 12 11 12 12 13 12 12 11 11 10 10 9 8 6 6 6 7 7 7 7 6 6 5 5 5 5 5 5 5 5 4 4 5 5 5 6 6
13 13 12 12 11 12 13 14 15 15 15 16 17 18 18 18 18 18 18 17 16 15 14 13 10 8 6 8 14 21 24 19 14 12 12 12 15 19 21 19 15 13 13 13 13 12 13 13 13 13 13 12 13 13 13 13 12 12 11 10 9 7 6 7 7 7 8 7 7 6 5 5 5 6 6 6 6 5 5 5 5 5 5 5 5 5
12 13 13 12 12 12 13 14 15 16 16 17 18 18 18 17 18 18 18 17 17 16 15 13 12 11 9 9 14 22 26 22 16 12 12 12 14 18 22 21 18 14 12 12 13 14 15 15 14 14 13 13 13 13 13 13 13 12 11 10 8 7 7 7 8 8 8 7 6 6 5 5 6 6 7 7 6 6 5 5 5 5 4 4 4 5
12 13 14 13 12 12 12 14 15 16 17 18 18 19 19 18 18 18 17 17 17 16 15 14 13 12 11 10 14 21 26 24 18 13 12 11 12 16 20 22 21 17 14 12 12 14 16 16 15 14 13 13 12 12 12 12 12 11 10 9 8 7 7 8 8 8 8 7 7 6 6 5 5 6 7 7 7 6 6 6 5 5 5 4 4 5
12 12 14 14 13 11 11 14 16 17 18 19 20 20 20 19 18 18 18 17 16 15 14 13 12 11 10 11 14 19 24 26 21 14 11 10 10 13 17 21 22 20 16 13 13 15 16 16 15 14 13 13 12 12 12 11 11 10 9 9 8 8 8 8 8 8 8 7 7 6 6 5 5 6 6 7 7 6 6 6 5 5 5 5 4 4
11 11 12 13 13 12 12 13 15 17 19 20 21 22 21 19 18 18 18 18 17 15 14 12 11 10 11 13 15 18 22 27 23 16 12 10 9 10 15 18 20 19 16 14 14 16 16 16 15 14 13 13 12 12 11 11 10 10 9 9 8 8 8 8 8 8 8 7 7 6 6 6 6 5 5 6 7 6 6 5 6 6 5 5 4 4
12 10 9 10 11 12 11 12 13 16 19 21 22 22 21 21 20 19 19 18 17 15 14 13 13 12 12 13 15 17 21 25 23 18 13 10 8 9 13 16 18 18 15 13 14 15 16 15 14 14 13 12 12 11 11 11 10 10 9 9 8 8 8 8 8 8 8 7 7 6 6 6 6 5 5 6 6 7 6 6 6 6 5 5 5 4
13 10 8 8 9 11 12 11 13 15 18 20 20 20 20 20 20 19 19 19 18 16 15 15 13 11 11 12 15 18 22 25 23 18 13 10 9 9 12 14 16 16 14 13 13 14 14 14 14 13 12 12 12 11 11 11 11 10 10 9 9 8 8 8 8 8 8 8 7 6 6 6 6 5 5 5 5 6 7 7 7 6 6 6 6 5
13 11 10 9 10 11 12 12 13 14 16 18 19 19 18 18 18 17 17 18 18 17 16 14 11 9 9 11 14 17 21 25 24 20 13 10 8 8 11 13 14 14 12 13 14 14 13 12 12 12 12 12 11 11 12 12 12 11 11 10 9 9 8 8 9 9 9 8 7 7 6 6 5 5 5 4 4 4 5 5 5 5 5 6 6 7
15 15 14 13 12 12 13 13 13 14 15 16 18 19 19 19 18 17 17 17 17 17 15 12 9 8 9 9 10 13 18 23 25 22 14 10 8 8 10 12 13 12 10 11 12 12 11 10 11 11 11 11 11 11 12 12 12 12 11 11 10 9 9 9 9 9 9 9 8 7 7 6 6 6 5 5 5 4 4 4 4 4 4 5 6 6
16 16 16 15 14 14 14 14 14 14 14 15 16 18 20 20 19 18 16 17 18 17 15 11 9 8 8 8 8 10 16 22 25 23 18 12 8 8 10 12 13 12 10 9 10 10 9 8 9 10 11 11 11 11 11 11 11 11 11 11 10 9 9 9 10 10 10 9 8 8 7 6 6 6 6 6 5 5 5 5 4 4 4 4 4 5
14 14 15 15 15 14 14 14 15 15 15 15 15 17 19 20 19 17 16 17 18 17 15 12 9 7 7 8 9 10 14 19 24 24 21 14 9 8 10 13 14 13 10 8 8 9 9 9 8 9 10 11 11 11 11 10 10 10 10 11 10 10 9 10 10 11 11 10 10 9 8 7 6 6 5 5 5 5 5 5 5 5 5 4 3 3
12 12 12 13 13 13 12 13 14 14 15 15 15 17 19 21 20 18 17 18 18 16 14 13 11 9 8 9 9 9 11 16 21 24 22 15 10 8 11 13 14 14 11 8 7 7 9 9 9 9 10 11 11 11 10 9 9 9 9 9 10 10 10 11 11 11 11 11 11 10 10 9 8 7 6 5 5 5 5 5 5 5 5 4 4 3
11 11 11 11 11 11 11 12 12 13 13 14 14 16 18 20 19 17 17 18 17 16 14 13 12 11 10 10 8 6 7 13 19 23 23 16 11 9 11 13 15 15 12 9 6 4 6 8 10 10 11 11 11 11 10 9 9 9 9 9 9 10 11 12 12 12 12 12 12 12 11 10 9 7 6 6 6 6 6 6 6 6 5 5 4 4
9 10 10 10 10 10 11 12 12 13 13 13 14 15 16 17 15 14 15 17 18 17 15 13 12 13 13 10 5 3 4 12 19 23 23 18 13 10 12 14 16 16 14 10 6 3 3 6 9 11 12 12 11 11 10 10 9 10 10 10 10 11 12 13 13 13 13 13 13 12 12 11 10 8 7 6 6 6 6 6 6 6 6 5 5 5
9 9 9 9 9 10 11 12 12 13 13 14 14 15 16 15 14 13 14 16 17 17 15 13 13 14 14 11 7 5 5 12 19 23 23 19 14 12 13 15 16 17 16 13 8 4 2 4 6 9 11 12 12 12 11 11 11 11 11 11 12 13 14 15 15 15 14 14 13 13 13 12 11 10 8 8 7 7 7 7 7 7 6 6 5 5
10 10 10 10 10 10 10 11 12 14 14 15 15 16 16 16 15 14 15 16 17 16 15 15 15 15 14 12 9 6 7 12 17 22 23 20 15 13 13 14 16 17 17 15 10 6 4 4 5 7 8 10 11 11 12 12 12 13 13 12 12 13 15 16 16 15 14 14 13 13 13 13 13 12 10 9 9 8 8 8 8 8 7 7 6 6
11 11 11 11 11 11 11 11 12 14 15 15 16 16 17 17 16 15 15 16 17 17 16 15 15 15 15 12 9 7 7 11 15 19 22 22 18 14 15 15 16 17 18 15 11 7 5 6 6 6 6 8 9 10 11 13 14 15 15 14 12 12 13 14 14 14 13 13 13 13 13 14 14 13 13 11 10 9 9 9 9 9 9 8 7 7
11 11 11 11 12 12 11 12 12 13 14 15 15 16 17 16 16 15 15 16 17 17 16 15 15 15 15 13 10 9 9 11 13 16 20 22 20 17 16 16 17 17 17 15 12 8 5 6 7 7 7 6 7 8 10 12 14 16 17 16 14 11 11 12 13 13 12 12 12 12 13 13 13 14 13 13 12 10 10 10 10 10 10 10 9 8
10 10 10 11 12 12 12 12 12 13 13 14 14 15 15 16 16 15 15 15 16 16 16 16 15 15 15 14 12 12 12 13 13 15 18 21 21 19 17 16 17 18 17 15 12 10 7 7 7 7 7 6 6 7 9 12 14 16 18 18 17 14 13 13 13 13 12 12 12 12 11 11 12 13 13 13 12 12 11 10 11 11 11 11 11 10
11 11 11 11 12 12 12 12 12 12 13 13 14 14 14 15 15 15 15 15 15 15 15 15 15 15 14 14 13 13 13 12 12 13 17 20 20 19 17 16 17 17 17 15 13 11 9 8 8 7 7 6 6 6 8 11 13 15 17 19 19 18 16 15 15 15 14 14 13 12 12 11 12 12 13 13 13 13 12 11 11 12 12 13 13 12
11 11 11 12 12 12 12 12 12 12 13 13 14 14 15 16 16 16 15 14 14 14 14 14 14 14 13 13 13 12 11 10 10 12 15 19 19 18 17 17 16 16 16 15 14 13 11 9 8 7 7 7 7 7 9 11 12 13 15 17 19 19 19 18 18 17 17 16 15 14 13 13 13 13 14 14 14 14 13 12 12 12 13 13 14 14
12 12 12 12 12 12 12 12 12 13 13 14 15 16 17 16 16 15 15 14 14 14 14 13 13 13 12 12 12 11 9 9 10 12 15 17 18 17 16 16 16 16 15 14 14 13 12 10 9 8 7 7 7 7 8 10 11 12 12 13 15 17 19 19 19 19 18 17 16 15 14 14 14 14 14 15 15 14 13 13 12 12 12 13 14 15
13 12 12 12 13 13 12 12 13 14 15 16 17 17 17 17 16 15 15 14 14 13 13 13 13 12 12 11 11 10 9 9 11 13 15 17 17 16 15 15 16 16 16 14 13 12 11 10 9 8 8 8 8 8 8 9 10 10 11 10 11 13 15 16 17 17 16 16 15 15 14 15 15 15 15 15 15 14 13 12 11 10 10 11 12 14
14 13 13 13 13 12 12 13 15 16 17 18 18 18 17 17 16 16 15 15 14 14 13 13 13 12 12 11 10 10 10 11 12 14 15 16 16 15 14 13 14 15 16 15 14 12 11 9 8 7 7 8 8 8 8 9 10 10 11 10 9 10 11 12 13 13 13 13 13 14 14 14 14 14 14 14 14 14 13 11 10 9 10 11 12 12
14 14 13 13 14 14 14 15 16 17 17 18 18 18 18 18 17 17 16 16 15 14 14 13 13 12 12 11 10 11 11 12 13 14 15 15 15 15 13 13 13 14 15 15 14 12 11 9 8 7 7 7 7 7 7 8 9 10 11 10 9 8 7 9 10 11 11 12 12 12 13 13 13 13 13 12 12 12 11 11 11 11 11 12 12 13
14 14 14 15 16 17 17 17 17 17 17 18 18 18 18 18 17 17 17 16 16 15 14 14 13 12 12 12 11 11 12 12 13 14 14 14 14 14 14 13 13 13 14 14 13 11 11 9 8 7 7 7 7 7 7 8 9 10 11 11 10 8 5 7 10 11 11 11 11 11 11 11 11 10 10 10 10 10 10 11 12 13 13 14 14 14
14 14 15 16 18 18 18 17 17 17 17 18 17 17 17 17 17 17 16 16 16 16 15 14 13 12 11 11 11 12 12 13 13 14 14 14 14 14 14 13 13 13 13 13 11 10 10 9 8 8 7 7 7 7 7 8 8 9 10 10 10 10 8 7 9 10 10 10 10 9 9 8 8 9 9 10 10 11 11 12 13 13 14 14 14 15
15 16 17 18 19 19 18 17 17 17 17 17 16 16 17 17 16 16 15 15 15 15 15 14 12 11 9 9 10 12 13 13 14 14 14 14 14 14 13 13 13 12 12 12 10 9 8 8 8 8 8 8 8 8 8 8 8 9 9 10 10 11 10 8 8 8 8 8 8 7 7 7 8 9 10 10 11 11 11 12 12 12 13 13 13 14
17 18 18 19 19 19 18 17 17 17 17 16 16 16 16 17 16 15 14 14 15 15 15 14 13 10 9 9 10 11 12 13 14 15 15 15 14 14 13 13 12 12 12 11 10 8 7 7 7 8 8 9 9 9 9 9 9 9 9 9 10 10 10 9 8 8 8 7 6 6 6 7 8 9 10 10 10 11 11 11 11 11 11 11 12 12
18 19 19 19 19 18 17 17 17 17 16 15 15 16 17 17 16 15 14 14 14 15 15 14 12 11 10 10 11 11 11 12 13 15 16 16 16 15 14 13 12 12 12 12 11 10 8 8 8 8 8 8 9 9 10 10 10 10 9 9 9 10 9 9 9 9 9 8 7 7 8 8 9 9 10 9 9 9 9 10 10 11 11 11 11 12
19 19 19 19 18 17 16 17 17 17 16 15 15 16 17 17 17 15 14 14 14 15 14 14 12 11 10 10 11 11 12 12 12 14 16 17 17 16 15 14 13 12 12 12 12 12 12 12 11 11 10 9 8 9 9 10 10 10 10 9 9 9 9 9 9 9 9 9 9 10 10 10 9 8 8 7 7 8 8 9 9 10 10 11 11 12
19 19 18 18 18 17 17 17 17 17 16 15 15 15 16 17 16 15 15 15 15 15 14 14 12 11 10 10 11 11 12 12 12 12 14 16 18 17 16 16 14 13 13 12 12 13 13 13 14 14 14 12 10 9 8 9 9 10 10 9 9 9 9 8 8 8 9 9 10 11 11 11 10 8 7 7 7 8 8 8 9 10 10 11 11 12
18 19 19 18 18 17 17 17 18 17 16 16 16 16 16 17 16 16 15 15 15 15 14 14 13 12 11 11 11 12 12 12 12 12 12 15 16 17 17 16 15 13 11 11 10 10 11 12 13 15 16 16 15 12 10 9 9 9 9 9 9 9 9 8 8 8 8 9 10 11 12 11 11 10 9 9 8 8 8 9 9 10 10 11 11 11
18 18 18 18 18 17 18 18 18 17 16 16 16 17 17 17 16 16 15 15 15 14 14 14 13 12 11 11 12 13 13 13 12 12 12 13 15 16 16 15 14 12 10 8 7 6 6 6 8 11 15 17 17 16 15 12 10 9 9 9 9 9 9 8 8 8 8 9 9 10 11 11 11 10 10 10 9 9 8 9 9 9 10 10 10 11
Wind_Direction
244 247 251 253 251 246 242 241 235 224 218 218 221 222 219 213 210 211 213 213 213 211 210 208 205 203 203 205 207 208 209 209 210 212 215 218 222 225 229 232 235 237 239 237 226 209 192 178 169 165 164 164 162 160 161 164 164 163 160 158 156 155 154 151 150 151 153 160 169 177 184 190 193 194 195 197 200 203 207 208 208 209 213 215 214 212
242 243 244 246 245 241 236 237 232 224 220 219 222 224 222 216 212 210 210 209 208 207 205 203 201 199 198 199 202 204 205 206 207 209 212 216 220 224 229 234 239 242 240 225 203 189 181 175 171 168 166 165 163 161 161 160 160 159 157 155 153 151 149 148 147 147 150 158 167 176 184 190 193 194 194 197 202 208 214 216 216 215 215 215 214 212
239 237 236 238 238 236 231 231 228 225 223 222 224 226 224 216 211 208 206 204 202 201 200 197 195 194 194 195 197 199 201 202 203 205 210 214 218 224 230 237 242 242 231 205 188 182 182 181 178 175 172 170 169 167 165 164 163 162 161 160 159 157 157 157 159 161 165 170 177 185 191 196 198 198 198 200 204 210 216 221 223 222 221 220 216 213
233 229 230 234 235 234 232 229 224 221 221 222 225 226 222 213 208 206 204 202 199 198 196 193 190 189 189 190 191 193 196 198 201 204 209 213 219 226 232 237 239 232 211 189 179 179 181 183 182 180 177 176 174 173 172 171 170 170 170 170 170 171 172 174 177 180 183 186 190 195 201 204 207 207 207 208 210 214 220 226 229 230 229 227 223 219
227 227 229 230 228 227 230 227 221 217 217 218 219 217 213 208 206 205 204 201 198 196 193 190 187 184 183 183 183 185 189 193 197 202 207 213 219 227 231 231 225 211 192 180 176 177 180 182 184 184 182 181 180 180 181 181 181 182 182 183 185 186 188 190 193 196 199 202 205 209 213 216 219 221 221 222 223 225 228 233 237 238 237 235 231 227
227 224 225 224 221 219 221 219 215 212 210 210 210 208 204 204 205 204 202 200 197 194 191 188 185 183 181 179 178 179 183 188 193 199 205 212 219 223 222 217 207 194 183 177 176 177 180 183 186 187 187 188 188 190 191 192 193 194 195 196 198 200 203 206 209 211 215 218 221 224 227 231 234 236 238 239 239 239 240 242 244 245 244 242 239 235
232 218 214 213 216 217 215 211 209 208 205 202 201 201 201 202 203 203 201 199 196 193 190 188 187 184 182 180 179 178 180 185 190 196 203 210 215 216 211 203 195 187 181 178 177 178 181 184 187 190 192 195 197 199 201 203 204 205 206 208 210 212 216 219 222 225 229 232 235 238 241 244 246 249 250 250 250 250 249 248 247 247 247 247 245 241
231 211 204 204 209 212 209 205 204 203 203 199 196 194 195 197 199 200 200 199 197 194 190 189 188 187 185 183 183 183 184 187 191 196 203 209 211 209 203 196 190 185 181 179 178 179 181 185 188 192 196 200 203 205 207 209 211 212 214 216 218 221 224 228 232 236 239 243 246 248 251 252 254 255 255 255 254 252 250 247 244 242 243 244 244 243
225 205 201 203 204 203 199 200 200 199 200 199 196 192 189 190 193 195 196 195 194 193 191 190 189 189 188 188 188 188 191 195 198 201 206 209 209 204 198 191 187 184 182 181 179 180 183 187 191 195 199 202 204 207 209 212 214 216 218 221 223 227 230 235 239 243 246 249 252 253 254 255 255 255 254 254 252 250 247 242 237 233 231 232 234 236
222 206 200 204 207 205 197 196 199 199 196 198 198 196 192 188 186 186 188 190 192 193 193 192 192 191 192 192 193 193 194 196 200 204 207 208 206 201 193 188 186 185 184 182 181 182 185 189 193 196 198 199 201 204 208 212 216 218 222 224 228 232 237 242 246 250 252 254 255 255 254 253 251 250 249 249 248 245 242 236 229 222 217 216 218 222
211 204 199 197 202 205 201 199 200 199 194 194 196 198 198 195 189 184 182 187 191 192 193 194 195 195 194 194 195 195 194 193 194 197 199 198 196 193 190 188 187 186 183 182 182 183 187 191 195 197 197 196 198 203 208 213 217 221 225 230 235 240 245 250 255 258 260 260 259 256 252 247 243 240 238 238 238 237 235 230 223 215 207 202 201 205
199 196 194 192 190 191 196 200 200 197 191 188 189 194 200 200 197 192 187 188 190 190 191 194 197 199 198 195 194 194 194 191 190 190 189 187 185 183 183 184 183 182 182 182 184 187 191 194 197 197 196 197 201 207 212 217 221 226 231 237 244 250 256 261 263 264 263 261 257 253 247 241 233 226 221 220 220 221 223 224 219 212 203 195 190 189
197 192 188 187 185 184 187 188 188 189 188 189 190 194 198 199 198 196 193 192 192 192 191 191 194 198 200 198 195 192 190 188 188 187 184 182 181 180 179 179 179 179 181 184 188 193 198 200 201 199 197 200 206 213 219 224 229 233 238 245 251 257 262 264 262 258 252 248 246 244 242 237 229 219 212 207 206 207 212 217 216 208 200 192 185 180
190 186 182 181 184 187 187 184 183 187 193 197 199 200 199 196 194 192 190 190 192 193 192 190 190 193 196 195 193 191 188 186 185 183 181 180 179 178 177 177 177 179 181 185 191 199 205 207 207 205 203 204 211 219 225 231 236 240 244 249 255 260 263 262 254 243 234 232 234 236 238 237 230 219 208 202 201 202 204 208 209 203 195 188 182 177
188 183 183 186 191 194 194 192 193 197 200 202 202 200 197 192 189 187 182 178 181 184 185 185 187 191 192 190 189 187 186 184 182 180 180 181 181 179 177 177 180 183 184 186 191 201 209 211 211 210 208 207 212 220 228 235 240 245 248 252 257 260 261 254 240 225 220 222 227 232 237 238 230 216 203 198 197 196 197 198 199 196 190 185 181 179
195 191 192 195 199 200 201 200 200 201 203 202 200 196 191 186 184 183 180 173 170 169 169 171 178 190 199 198 192 186 182 181 181 181 181 188 188 184 178 179 184 188 188 188 192 202 211 212 212 212 211 209 212 219 227 233 240 247 251 254 257 259 254 240 223 213 213 218 224 231 237 238 228 211 198 194 194 193 192 192 193 191 188 185 183 183
201 198 199 200 202 202 203 202 202 201 200 197 196 194 191 187 183 181 178 171 166 165 168 171 173 184 202 206 200 191 182 178 180 184 186 194 197 193 185 182 185 192 195 193 196 204 212 215 215 215 216 216 219 224 229 233 238 244 250 254 256 253 242 223 211 208 211 217 224 230 236 235 222 205 195 192 191 190 189 188 188 188 188 187 187 188
204 202 202 203 203 202 200 200 200 199 196 193 193 193 192 189 185 181 178 173 170 170 174 179 184 189 190 200 207 201 186 178 176 183 187 196 204 203 197 192 190 193 198 200 204 210 216 219 221 222 224 227 230 233 235 236 238 242 247 250 249 241 225 210 205 207 212 217 223 229 232 229 219 206 197 193 191 190 189 187 186 185 185 188 191 194
210 206 205 207 207 203 199 199 198 196 192 189 188 188 187 186 184 182 181 180 179 179 179 182 188 194 198 201 206 202 192 181 177 183 188 194 204 209 206 203 199 197 199 202 209 216 222 226 229 231 234 237 239 240 240 239 239 240 242 241 237 225 212 205 204 207 211 215 220 224 226 224 218 210 203 197 194 191 190 188 185 182 181 185 194 198
217 214 212 212 210 205 202 202 201 198 194 192 189 186 183 183 183 183 185 185 185 184 184 185 190 197 203 199 199 200 196 188 183 184 191 193 200 207 209 208 206 203 203 205 213 221 227 231 234 237 241 243 244 243 240 238 237 235 234 229 221 211 205 203 204 207 211 215 219 220 220 220 218 215 210 204 199 195 191 188 185 183 184 190 195 196
221 220 219 216 213 210 207 208 208 205 200 196 191 186 184 184 184 185 187 186 186 186 186 189 193 196 197 189 191 195 197 192 188 188 192 191 196 203 207 208 208 207 207 210 219 227 231 235 238 241 243 244 244 241 237 233 230 226 222 216 210 205 204 204 205 207 210 213 217 217 214 212 214 216 214 208 203 197 194 191 190 191 195 198 197 192
224 226 225 220 217 216 217 215 213 209 206 201 194 189 187 186 185 186 187 186 185 186 188 189 189 186 184 182 186 193 195 192 190 189 189 189 190 199 207 206 206 207 209 214 223 230 235 239 241 243 244 243 241 236 231 226 220 215 210 206 204 204 204 205 205 206 208 212 216 216 211 208 210 213 213 208 202 198 196 197 198 200 202 204 200 194
223 227 228 223 219 218 219 216 212 210 209 207 203 199 196 193 189 187 187 186 184 184 184 184 182 179 179 181 184 187 190 191 192 191 190 191 188 194 205 205 204 204 207 213 223 231 236 240 242 243 241 239 235 230 223 216 211 207 204 203 203 204 205 205 205 205 206 210 214 213 208 205 205 208 209 206 202 199 199 200 201 203 204 205 202 199
224 226 227 221 217 215 212 209 207 207 209 209 209 207 205 200 197 194 191 188 186 184 184 183 178 174 176 180 182 184 188 189 189 190 193 195 190 190 199 203 202 201 204 211 221 229 235 240 241 240 237 233 229 222 216 209 205 203 202 202 203 204 205 206 205 204 204 207 209 209 205 204 205 208 209 210 208 205 205 205 206 206 206 206 205 203
221 222 220 213 210 209 209 208 208 208 208 208 207 205 202 199 195 191 189 187 186 185 182 175 167 163 170 177 180 185 189 190 188 187 190 192 183 181 195 200 197 194 198 210 220 227 233 236 237 235 230 225 221 216 211 207 204 203 203 203 203 204 206 207 205 203 203 203 204 203 202 203 206 207 210 215 219 220 218 217 216 216 217 216 215 213
220 220 220 218 217 215 215 216 217 217 215 211 207 203 198 192 186 182 180 181 182 179 173 168 167 168 171 173 180 189 192 192 189 187 185 183 171 171 191 195 191 187 191 207 219 226 227 228 229 227 221 217 214 212 210 209 208 207 206 204 204 204 207 207 206 204 202 201 200 200 202 204 207 210 212 216 220 224 227 228 228 229 232 232 231 228
228 228 228 229 229 229 228 226 225 224 222 218 213 206 198 188 181 176 174 177 178 176 171 176 179 176 171 173 181 191 195 193 190 188 185 179 168 169 185 189 185 181 183 199 212 215 210 210 214 217 215 212 210 208 209 210 212 212 211 207 204 204 208 208 205 202 201 199 199 200 201 204 208 212 215 217 218 220 222 224 226 230 238 244 246 245
233 233 233 233 234 235 234 231 227 223 220 218 214 208 199 189 180 176 177 179 178 177 178 183 182 176 173 177 179 185 194 194 192 191 189 182 171 170 186 188 184 179 176 181 193 197 191 191 198 208 212 211 209 208 209 212 214 216 213 208 204 204 207 205 203 201 199 199 200 200 201 202 203 207 212 216 219 221 222 222 224 229 237 243 248 251
231 230 230 230 231 231 229 224 219 215 214 212 210 206 200 193 187 184 185 182 179 178 184 188 187 179 170 165 163 172 188 196 196 194 192 185 175 175 189 186 182 178 172 164 170 184 188 191 196 203 211 212 211 210 211 213 215 214 210 205 202 203 203 202 200 198 198 200 204 206 206 204 203 204 207 212 217 221 223 224 226 230 236 241 244 244
225 224 223 222 221 219 215 208 204 202 203 204 203 201 198 196 194 192 190 185 181 181 186 189 186 174 158 148 146 160 188 200 200 197 193 187 179 179 187 183 181 179 173 158 149 165 192 202 207 210 214 216 216 215 215 215 212 208 201 195 196 198 199 198 196 196 199 204 209 213 214 213 212 211 212 213 215 217 221 223 225 229 234 236 237 237
213 212 210 209 207 203 198 193 190 188 189 191 192 192 192 193 194 195 194 190 186 185 187 187 181 170 159 151 148 163 191 201 202 199 194 188 184 184 187 181 181 181 178 167 157 155 181 197 209 217 220 221 221 221 219 215 208 199 190 186 188 192 195 196 197 199 205 212 218 220 221 222 223 225 228 229 226 223 221 220 221 225 228 229 231 233
192 192 190 189 188 186 185 183 181 179 177 178 181 184 187 187 189 190 191 191 190 189 188 186 179 172 169 171 175 177 178 195 200 200 195 190 187 189 192 184 181 182 182 176 172 167 158 163 187 205 215 219 222 223 219 213 203 192 185 183 187 193 198 201 204 208 215 221 226 228 228 229 230 235 242 246 244 238 232 225 221 221 223 224 227 229
182 181 179 177 175 174 175 175 174 173 172 174 179 184 186 186 185 184 185 187 188 189 190 186 180 175 174 176 176 173 177 193 200 200 196 191 187 187 190 186 184 183 184 182 178 171 152 142 155 176 196 207 214 217 215 210 200 191 185 185 191 199 205 208 212 216 222 228 232 234 234 235 236 240 246 252 254 251 244 235 228 224 222 222 224 227
182 181 179 175 172 170 170 171 172 172 174 177 182 187 188 188 186 185 185 186 188 190 192 191 186 180 176 174 171 170 180 194 199 199 196 194 191 188 187 184 183 184 185 186 186 177 150 139 139 148 166 188 202 209 210 207 201 194 189 187 192 202 211 215 217 219 224 230 235 239 241 242 243 245 248 252 255 256 251 244 237 230 226 223 223 226
182 182 181 178 175 172 170 171 173 176 179 182 186 190 191 190 189 189 188 189 190 192 193 194 193 189 185 182 178 176 184 197 199 197 196 197 196 192 185 183 184 185 183 186 187 180 156 146 145 146 149 164 185 202 209 209 206 201 196 193 193 199 210 216 217 218 221 228 235 241 247 249 251 251 252 254 256 256 254 250 243 237 231 227 226 227
180 180 181 181 179 176 174 175 177 179 182 186 188 190 191 191 191 191 191 191 192 194 195 196 196 195 195 194 192 192 196 202 201 196 195 198 199 195 186 185 187 187 183 183 183 179 167 158 156 157 155 157 171 191 204 211 212 209 205 202 200 201 208 215 218 219 221 226 233 240 247 252 255 256 257 257 258 258 257 254 248 243 236 230 227 227
181 181 181 181 181 179 178 179 180 181 183 184 185 186 187 188 190 190 190 191 192 194 196 197 199 200 200 202 204 206 210 211 206 198 196 198 200 197 189 187 189 189 184 181 179 177 170 163 164 168 172 174 175 180 191 205 212 213 212 211 209 210 214 220 224 227 228 231 235 239 244 248 252 255 257 259 260 261 261 258 253 248 241 234 229 227
184 184 183 182 182 181 180 180 181 182 182 181 180 180 183 185 187 188 187 188 189 191 194 196 198 200 202 205 208 213 217 216 208 200 196 196 197 197 192 187 186 188 187 183 179 175 169 165 166 175 188 192 189 182 184 194 203 209 215 217 217 218 221 226 231 234 237 239 241 242 244 245 248 252 256 260 263 265 265 264 259 253 246 240 234 229
186 185 184 183 182 182 181 181 181 180 180 179 180 181 182 183 184 184 183 184 186 188 191 193 194 195 197 200 204 208 210 207 201 196 194 194 194 195 193 187 183 183 185 184 181 177 174 172 174 179 186 190 188 184 185 192 197 202 208 214 219 223 226 230 235 239 242 244 244 244 244 246 248 251 255 260 263 265 266 266 264 259 251 244 238 234
188 187 185 184 183 182 181 180 178 178 179 181 183 183 182 180 179 179 179 180 182 185 188 190 190 190 190 191 193 194 192 190 189 189 190 191 192 193 193 189 184 182 182 181 179 177 177 179 183 185 185 184 182 180 181 186 191 194 194 197 208 220 227 231 235 240 243 244 244 243 243 245 248 251 254 257 260 261 263 262 260 257 251 244 238 235
189 188 186 184 182 179 177 177 178 179 182 183 182 180 178 176 174 173 174 175 176 179 181 183 183 183 183 183 183 182 180 180 181 184 186 187 189 190 190 189 188 186 183 181 179 178 178 182 186 189 188 185 183 181 182 186 188 189 188 190 198 211 222 228 233 237 240 242 242 242 241 243 245 248 251 255 258 259 259 256 249 243 241 240 237 233
189 188 185 180 178 176 176 177 178 181 184 183 180 177 175 174 172 170 169 168 169 171 174 175 174 172 171 172 175 177 176 177 179 180 182 184 187 188 187 186 187 188 187 184 181 180 181 183 187 190 189 186 182 181 184 189 192 193 193 194 195 200 211 218 224 229 232 235 239 242 242 242 243 244 247 249 252 254 253 248 240 233 230 231 233 233
189 187 183 178 176 177 177 177 178 179 180 179 177 175 175 175 174 172 169 167 166 167 169 171 170 167 163 163 167 173 175 176 177 177 179 182 185 187 187 186 186 187 187 184 182 183 186 187 190 193 193 190 187 185 186 188 192 197 200 199 196 193 197 203 212 220 226 233 239 244 247 245 241 238 238 239 240 241 242 241 238 235 232 231 232 233
185 182 178 175 177 179 179 178 177 177 176 175 174 174 175 175 175 173 170 168 168 168 168 168 167 164 160 161 167 172 175 177 177 177 178 180 184 187 188 187 186 187 188 185 182 182 188 192 195 197 196 195 195 195 193 192 194 197 202 203 202 201 200 200 206 215 224 233 242 249 251 244 232 224 223 226 229 232 235 239 241 242 242 241 240 238
179 176 174 174 176 177 177 177 177 176 175 175 174 174 175 175 174 173 170 169 169 169 168 166 163 159 156 163 171 177 179 180 180 180 180 182 184 187 189 189 188 187 188 187 185 185 188 195 200 202 202 202 202 202 201 200 199 200 203 205 207 208 208 206 209 216 223 232 241 248 248 236 223 217 218 223 227 231 236 240 245 248 250 250 248 245
176 173 172 173 175 176 176 177 177 175 174 174 174 175 176 175 174 173 172 171 171 171 171 169 166 163 164 168 172 176 181 184 185 185 185 185 187 189 192 194 194 191 189 186 186 188 194 200 202 203 205 206 208 209 208 206 205 204 205 206 207 209 211 212 213 217 222 226 229 230 230 228 223 221 222 228 234 239 242 245 246 249 252 254 254 251
175 173 172 172 173 174 176 177 176 174 172 172 174 176 177 176 174 172 172 174 174 173 172 172 172 173 174 173 172 173 177 183 189 192 191 190 191 193 195 198 201 202 199 193 190 190 195 197 198 198 199 200 206 211 213 212 209 208 207 206 207 208 210 213 215 218 220 219 214 211 216 222 223 225 229 235 241 245 247 247 247 247 248 250 252 252
176 174 173 172 172 172 173 174 174 173 171 171 173 176 178 178 175 173 172 175 176 175 173 175 177 180 181 179 177 177 177 180 185 192 195 196 196 197 199 202 205 209 210 207 204 201 201 199 196 193 193 195 200 206 209 211 211 209 208 206 206 207 209 212 215 218 219 215 211 212 216 220 222 225 230 236 240 243 243 243 244 245 246 247 248 250
178 176 174 173 172 171 172 173 173 172 171 170 171 174 178 180 178 176 175 176 176 176 175 177 179 182 183 181 180 179 178 178 180 186 193 199 201 202 203 205 207 210 213 216 217 217 217 214 209 205 203 200 200 204 203 206 207 207 206 206 207 207 208 210 212 214 215 214 215 217 221 225 227 227 224 226 232 235 236 236 238 240 243 246 249 251
179 178 177 175 173 173 173 173 173 172 171 170 170 172 175 177 178 179 178 178 177 178 178 179 180 181 181 181 179 177 176 174 174 177 184 195 200 201 202 203 204 204 206 212 218 224 229 233 229 224 223 217 212 207 201 201 203 205 206 207 207 206 205 206 207 209 211 214 217 221 225 229 230 229 224 225 229 233 236 236 235 236 239 244 249 253
178 178 178 176 175 174 174 173 173 172 171 170 170 170 171 173 175 177 178 178 178 178 179 180 181 182 182 180 179 178 178 176 173 172 176 188 194 195 195 194 191 187 183 186 194 205 219 232 239 239 236 230 225 220 212 204 200 202 206 208 208 206 204 202 203 204 206 210 216 222 227 229 229 227 225 224 227 233 238 240 240 238 237 239 244 249